Location: Playden
(50.9500°N, 0.7333°E)
Time: 06:19:10
(UTC+00:00)

Daily predictions for brighter satellites

Satellite Brightness Start Highest point End
(mag) Time Altitude Azimuth Time Altitude Azimuth Time Altitude Azimuth
ERBS 4.1 19:48:53 10° WNW 19:51:49 28° N 19:54:44 10° ENE
Cosmos 1707 Rocket 3.6 19:48:13 10° NNW 19:52:35 84° W 19:56:54 10° S
CZ-2C R/B 2.6 19:48:26 10° NNE 19:53:38 68° ESE 19:58:51 10° S
ARGOS 4.3 19:49:25 10° S 19:54:34 46° W 19:59:45 10° NNW
Cosmos 192 4.4 19:50:11 10° NNW 19:55:08 90° W 20:00:04 10° SSE
Cosmos 2219 Rocket 4.3 19:52:49 10° N 19:56:18 16° NNE 19:59:46 10° ENE
NOSS 3-2 (A) 3.6 19:50:49 10° SSW 19:56:18 49° ESE 20:02:34 10° NE
USA 267 4.4 19:53:35 10° E 19:57:57 19° ESE 20:02:18 10° SSE
SL-16 R/B 2.7 19:55:16 10° NNW 20:00:48 49° NE 20:06:17 10° SE
SL-4 R/B 1.8 19:58:08 10° WSW 20:02:12 87° SSE 20:05:58 10° E
BREEZE-M DEB (TANK) 2.2 20:00:50 10° WSW 20:03:17 59° SSE 20:08:41 10° E
MONITOR-E 4.1 20:02:10 10° S 20:04:28 54° W 20:06:48 10° NNW
Cosmos 2242 Rocket 4.3 20:00:48 10° N 20:04:54 36° ENE 20:08:57 10° SE
SL-27 R/B 4.2 20:04:35 10° SE 20:06:22 14° E 20:08:10 10° ENE
NOSS 3-2 (C) 3.8 20:01:52 10° S 20:07:07 38° ESE 20:13:02 10° NE
Cosmos 1470 Rocket 4.0 20:03:51 10° SSE 20:07:57 41° E 20:12:04 10° NNE
Sich 1 3.5 20:04:20 10° SSW 20:08:45 67° WNW 20:13:12 10° N
BREEZE-M DEB (TANK) 1.8 20:07:31 10° W 20:10:46 60° S 20:12:31 12° E
Cosmos 2082 Rocket 2.3 20:06:02 10° SSW 20:11:44 89° ESE 20:17:27 10° NNE
USA 186 4.0 20:12:04 10° SW 20:13:24 14° W 20:14:45 10° WNW
Meteor 2-20 Rocket 4.5 20:07:39 10° N 20:13:52 81° E 20:20:01 10° SSE
Meteor 1-4 Rocket 3.2 20:13:13 10° NNW 20:16:36 52° W 20:19:58 10° S
Cosmos 2322 Rocket 2.6 20:12:33 10° NNW 20:18:09 53° NE 20:23:14 13° SE
ERS-1 Rocket 4.1 20:16:14 11° ESE 20:20:15 29° ENE 20:24:31 10° N
Cosmos 1862 Rocket 3.6 20:15:54 10° N 20:20:23 87° W 20:24:48 10° S
H-2A R/B 4.4 20:16:55 10° SW 20:20:48 22° W 20:24:38 10° NW
Cosmos 1850 Rocket 4.5 20:19:38 10° S 20:24:31 39° ESE 20:29:23 10° NE
Cosmos 841 Rocket 4.1 20:20:42 10° NNW 20:25:43 44° ENE 20:29:56 14° SE
Meteor 1-25 Rocket 4.3 20:21:02 10° S 20:26:31 60° E 20:32:05 10° NNE
Cosmos 2360 Rocket 3.0 20:21:54 10° NNW 20:27:13 39° NE 20:31:48 13° ESE
Cosmos 676 Rocket 4.1 20:21:55 10° SSW 20:27:16 89° WNW 20:32:40 10° NNE
USA 276 2.6 20:24:58 10° W 20:28:04 47° SSW 20:30:11 18° SE
SPOT 1/Viking Rocket 4.0 20:23:32 12° SE 20:28:04 46° ENE 20:33:03 10° N
Meteor 1-18 Rocket 4.3 20:23:02 10° N 20:28:36 63° ENE 20:33:52 11° SSE
X-37B 2.2 20:26:14 10° WSW 20:28:45 22° SSW 20:30:22 15° SSE
USA 32 4.0 20:24:06 10° S 20:29:16 65° E 20:34:28 10° NNE
Terra 3.3 20:27:56 12° ESE 20:31:09 23° ENE 20:34:51 10° N
ATLAS 3B R/B 3.6 20:27:25 10° SSE 20:32:28 24° ESE 20:37:33 10° ENE
IGS 5A 3.7 20:29:39 14° SE 20:33:07 54° ENE 20:37:12 10° N
Cosmos 1238 Rocket 2.2 20:30:35 10° S 20:33:27 52° E 20:36:28 10° NNE
Cosmos 468 Rocket 4.1 20:29:29 10° NNW 20:34:50 86° WSW 20:39:43 12° SSE
CZ-2C R/B 3.7 20:30:40 10° NNE 20:35:17 86° WNW 20:39:47 10° SSW
USA 234 3.6 20:29:23 10° E 20:35:51 66° NNE 20:42:20 10° WNW
Cosmos 1980 Rocket 3.5 20:30:52 10° NW 20:36:02 37° WSW 20:41:08 10° S
Cosmos 44 3.4 20:31:40 10° NW 20:36:34 83° NE 20:40:36 17° SE
Cosmos 1934 Rocket 4.2 20:31:27 10° SSW 20:37:50 80° W 20:44:14 10° N
Lacrosse 5 2.5 20:32:58 10° WNW 20:37:52 49° SW 20:41:50 15° SSE
Resurs 01 Rocket 2.0 20:35:43 10° S 20:40:07 64° WSW 20:44:32 10° NNW
Cosmos 1602 3.8 20:38:07 10° S 20:41:58 58° E 20:45:52 10° NNE
CARTOSAT-1 4.3 20:40:31 18° SE 20:43:15 37° ENE 20:47:15 10° N
GP-B 3.1 20:39:12 10° N 20:43:41 85° E 20:48:08 10° S
Cosmos 1833 Rocket 4.4 20:42:10 10° WSW 20:47:22 38° NW 20:52:38 10° NNE
Cosmos 1933 Rocket 3.5 20:44:03 10° S 20:48:28 73° E 20:52:55 10° NNE
Cosmos 1867 4.3 20:46:31 10° WSW 20:51:53 57° NW 20:57:18 10° NE
COSMOS 2428 4.2 20:48:37 10° NNW 20:53:27 27° NE 20:57:48 12° E
Cosmos 1814 Rocket 4.2 20:48:19 10° NNW 20:53:29 57° ENE 20:56:56 21° SE
Cosmos 405 Rocket 2.6 20:51:04 10° SSW 20:54:46 88° W 20:58:35 10° NNE
Spot 2 Rocket 3.5 20:51:17 15° SSE 20:55:33 87° ENE 21:00:41 10° NNW
USA 238 DEB 3.8 20:50:06 10° SW 20:56:46 84° NW 21:03:47 10° NE
USA 238 3.7 20:50:12 10° SW 20:56:52 85° NW 21:03:54 10° NE
Cosmos 1515 3.6 20:53:18 10° N 20:57:10 81° E 20:59:36 21° SSE
Cosmos 2237 Rocket 4.4 20:53:47 10° N 20:57:20 16° NNE 21:00:51 10° ENE
Meteor 1-20 Rocket 4.4 20:51:39 10° SSW 20:57:30 80° WNW 21:03:24 10° N
Okean 1-7 2.9 20:54:39 10° N 20:59:00 78° E 21:01:51 21° SSE
CENTAUR R/B 2.5 20:53:59 10° SSW 20:59:59 73° SE 21:07:09 10° NE
Cosmos 1869 Rocket 4.1 20:57:44 22° SSE 21:00:11 41° E 21:04:23 10° NNE
Cosmos 1741 Rocket 3.9 20:58:05 10° SSW 21:03:20 74° ESE 21:08:39 10° NNE
Cosmos 1437 Rocket 2.7 21:01:06 10° NNW 21:04:54 76° W 21:07:19 21° S
FALCON 9 DEB 3.6 21:03:12 10° W 21:06:40 61° N 21:09:36 14° ENE
OBJECT-B 3.7 21:05:41 10° SW 21:07:42 15° W 21:09:44 10° NW
Cosmos 1763 Rocket 4.1 21:03:51 10° NNW 21:09:03 54° WSW 21:13:14 15° S
Cosmos 1703 Rocket 3.6 21:04:57 10° NNW 21:09:19 76° W 21:12:20 19° S
H-2A R/B 3.5 21:05:56 10° NNE 21:10:04 81° WNW 21:14:13 10° SSW
Cosmos 1570 Rocket 4.0 21:06:12 10° NNW 21:11:34 87° WSW 21:14:57 23° SSE
Cosmos 2333 Rocket 3.2 21:06:21 10° NNW 21:11:44 37° NE 21:15:19 19° ESE
ATLAS 5 CENTAUR R/B 2.1 21:09:53 10° NW 21:12:16 54° NE 21:14:58 22° ESE
Cosmos 2084 Rocket 3.3 21:09:51 10° SW 21:14:04 84° SE 21:18:24 10° NE
SWARM C 4.4 21:14:16 10° N 21:17:36 73° E 21:18:42 39° SSE
SWARM A 4.1 21:14:21 10° N 21:17:42 81° E 21:18:54 37° S
Landsat 7 4.3 21:15:20 16° S 21:18:59 59° WSW 21:23:43 10° NNW
SPOT 5 2.6 21:17:39 29° SSE 21:19:46 70° ENE 21:24:14 10° N
Meteor 1-5 Rocket 4.5 21:18:35 21° SSE 21:22:31 57° E 21:28:16 10° NNE
Cosmos 2208 Rocket 4.0 21:17:48 10° NNW 21:23:05 84° WSW 21:25:58 27° SSE
ERBS 3.4 21:25:33 10° NW 21:28:41 38° NNE 21:30:12 23° ENE
Cosmos 1733 Rocket 4.1 21:29:41 28° ESE 21:30:15 29° E 21:34:05 10° NNE
Cosmos 1356 4.2 21:30:29 33° E 21:30:29 33° E 21:33:24 10° NNE
Meteor 1-11 Rocket 4.1 21:31:46 29° SSE 21:34:16 48° E 21:39:51 10° NNE
Tsikada Rocket 4.4 21:29:39 10° N 21:35:49 50° ENE 21:38:45 29° SE
Lacrosse 4 Rocket 2.1 21:37:37 34° ESE 21:37:37 34° ESE 21:41:06 10° NE
GENESIS II 4.2 21:36:11 10° NW 21:40:13 75° NE 21:41:16 47° ESE
SL-27 R/B 3.3 21:37:55 10° SW 21:41:06 46° WNW 21:44:19 10° NNE
Meteor 2-4 Rocket 4.0 21:35:46 10° NNW 21:41:19 64° W 21:44:40 24° S
Cosmos 2100 Rocket 3.9 21:36:57 18° S 21:41:35 87° ESE 21:47:48 10° N
Cosmos 2219 Rocket 2.7 21:36:07 10° NNW 21:41:41 50° NE 21:44:23 28° ESE
Cosmos 540 Rocket 4.0 21:36:43 10° NNW 21:41:47 54° WSW 21:44:28 26° S
SL-4 R/B 1.7 21:38:00 10° W 21:41:54 84° N 21:42:58 44° E
USA 267 3.2 21:35:29 10° ENE 21:41:57 58° SE 21:48:22 10° SW
SL-16 R/B 3.4 21:39:40 10° NW 21:44:46 35° WSW 21:48:20 18° SSW
Cosmos 2173 Rocket 3.9 21:41:11 20° S 21:45:35 87° E 21:51:43 10° N
NOSS 3-2 (A) 4.4 21:41:23 10° WSW 21:47:12 50° NNW 21:53:56 10° NE
Cosmos 1242 Rocket 2.7 21:47:00 10° N 21:50:35 54° ENE 21:50:53 52° E
SAR-Lupe-2 3.5 21:49:36 10° NNE 21:53:14 83° WNW 21:54:04 50° SSW
Meteor 1-23 Rocket 4.4 21:49:11 10° N 21:55:00 64° ENE 21:57:14 37° SE
Cosmos 2322 3.7 21:49:28 10° NNW 21:55:10 81° ENE 21:57:25 38° SE
NOSS 3-2 (C) 4.1 21:51:52 10° WSW 21:57:43 60° NW 22:04:32 10° NE
Cosmos 1725 Rocket 4.0 21:55:18 33° SSE 21:58:11 64° E 22:04:27 10° NNE
Cosmos 1459 Rocket 4.1 21:53:46 19° SSW 21:58:29 79° W 22:04:55 10° N
ERS-1 Rocket 3.6 21:56:14 26° SSW 21:58:50 49° W 22:03:43 10° NNW
Cosmos 2346 Rocket 4.4 21:54:35 10° N 22:00:41 85° W 22:03:31 34° S
Meteor 1-13 Rocket 4.3 21:55:22 10° NNW 22:00:53 71° W 22:03:23 33° S
Cosmos 1833 4.1 21:58:11 30° S 22:00:58 66° ESE 22:06:37 10° NE
Cosmos 2322 Rocket 3.5 21:56:59 10° NW 22:02:00 32° WSW 22:05:03 19° SSW
Cosmos 1500 4.1 22:00:28 26° SW 22:02:12 45° WNW 22:05:51 10° N
SL-08 R/B 4.4 21:59:40 34° SSE 22:02:23 70° E 22:08:29 10° NNE
Cosmos 1536 2.7 22:03:04 63° SE 22:03:25 68° E 22:07:22 10° NNE
Cosmos 1378 Rocket 3.9 21:59:50 10° N 22:04:10 48° ENE 22:04:52 44° ESE
Cosmos 2221 Rocket 3.8 21:59:45 10° NNW 22:04:14 69° W 22:05:37 43° SSW
Cosmos 2016 Rocket 4.0 22:02:20 29° S 22:05:50 85° E 22:12:15 10° N
JB-3 4.3 22:02:40 10° NNE 22:06:44 68° ESE 22:07:09 62° SE
Okean 3 4.1 22:03:04 10° NNW 22:07:15 51° W 22:08:38 35° SSW
Terra 2.2 22:06:49 37° SSW 22:08:32 59° W 22:13:16 10° NNW
Cosmos 2333 4.2 22:04:16 10° NNW 22:10:05 82° WSW 22:12:06 43° SSE
Cosmos 2360 Rocket 2.8 22:05:56 10° NW 22:11:21 47° WSW 22:13:33 31° SSW
COSMOS 2487 2.6 22:12:29 60° NE 22:12:29 60° NE 22:15:24 10° NNE
Cosmos 1666 2.6 22:12:27 65° SW 22:12:53 76° W 22:16:41 10° N
SL-16 R/B 4.3 22:08:55 10° NNW 22:13:05 20° NE 22:17:14 10° E
USA 234 3.3 22:16:21 38° SSE 22:18:55 64° SW 22:25:27 10° WNW
Lacrosse 5 4.2 22:18:40 10° WSW 22:19:47 11° WSW 22:20:54 10° SW
Iridium 4 Rocket 3.7 22:18:30 34° SW 22:19:55 49° W 22:23:59 10° N
Cosmos 1864 Rocket 4.4 22:17:15 34° S 22:20:12 90° W 22:26:33 10° N
Cosmos 1378 3.2 22:17:41 10° N 22:21:16 66° ENE 22:21:16 66° ENE
MOS 1-B Rocket 3.9 22:16:18 10° NNE 22:21:49 56° E 22:23:10 45° SSE
ATLAS 3B R/B 2.5 22:15:45 10° SW 22:22:22 88° NW 22:29:05 10° NE
Cosmos 1975 Rocket 4.2 22:22:50 10° N 22:26:51 31° ENE 22:27:17 30° E
Cosmos 2297 Rocket 4.0 22:32:12 16° E 22:32:12 16° E 22:34:48 10° ENE
Okean 2 4.0 22:30:33 10° N 22:34:30 44° ENE 22:34:30 44° ENE
Thor Agena Rocket 3.9 22:29:52 10° NNE 22:34:46 45° E 22:35:03 44° ESE
Cosmos 1743 3.1 22:35:21 53° ENE 22:35:21 53° ENE 22:38:42 10° NNE
Cosmos 1980 4.3 22:29:26 10° NNW 22:34:59 50° NE 22:36:58 35° ESE
Cosmos 1975 4.2 22:36:14 28° ENE 22:36:14 28° ENE 22:39:04 10° NNE
Cosmos 2233 Rocket 3.9 22:34:08 44° S 22:36:19 79° E 22:42:40 10° NNE
COSMOS 2428 2.7 22:32:37 10° NNW 22:38:23 80° WSW 22:39:48 53° SSE
Cosmos 2061 Rocket 4.4 22:35:41 26° SSW 22:39:15 60° WNW 22:45:24 10° N
Cosmos 44 Rocket 3.4 22:37:25 10° NW 22:42:22 64° SW 22:42:56 59° SSW
Cosmos 2237 Rocket 2.7 22:37:14 10° NNW 22:42:46 52° NE 22:44:35 38° ESE
FALCON 9 DEB 4.2 22:40:24 10° WNW 22:42:51 43° WNW 22:42:51 43° WNW
Cosmos 1271 Rocket 2.8 22:40:59 10° NNW 22:44:31 71° NW 22:44:31 71° NW
Cosmos 783 Rocket 4.5 22:41:58 10° NNW 22:47:15 75° ENE 22:48:13 58° SE
NOSS 0 Rocket 3.9 22:43:42 10° NNW 22:50:00 82° ENE 22:51:50 49° SE
Cosmos 1674 Rocket 4.0 22:46:24 10° NNW 22:50:36 49° W 22:51:00 47° WSW
CENTAUR R/B 3.9 22:45:06 10° W 22:51:14 43° NNW 22:58:27 10° NE
Cosmos 2333 Rocket 2.6 22:50:38 10° NW 22:56:12 51° WSW 22:57:19 44° SSW
Cosmos 1503 Rocket 3.9 22:58:15 65° SSE 22:58:54 73° ESE 23:04:15 10° NNE
Geosat 3.8 22:58:12 67° SSE 22:58:54 85° WSW 23:03:58 10° NNW
Cosmos 1486 Rocket 4.2 23:02:24 41° SW 23:04:07 65° WNW 23:09:19 10° NNE
ERBS 4.4 23:01:50 10° WNW 23:03:07 21° WNW 23:03:07 21° WNW
Cosmos 1733 Rocket 4.3 23:06:45 29° WSW 23:07:58 35° WNW 23:12:03 10° N
Meteor 2-11 Rocket 4.4 23:06:27 52° SSW 23:08:05 86° W 23:14:15 10° N
DNEPR-1 R/B 4.1 23:07:33 10° NW 23:13:40 74° NE 23:14:43 56° ESE
Sich 1 Rocket 4.3 23:15:13 42° ENE 23:15:13 42° ENE 23:18:53 10° NNE
Lacrosse 4 Rocket 2.8 23:13:52 22° W 23:15:57 36° NW 23:19:50 10° NNE
ALOS 2 2.5 23:17:00 85° N 23:17:00 85° N 23:21:19 10° NNW
Cosmos 773 Rocket 3.8 23:12:00 10° NNW 23:17:11 88° ENE 23:17:38 75° SSE
Helios 1A 3.9 23:18:09 40° ENE 23:18:11 40° ENE 23:22:09 10° N
Cosmos 968 Rocket 3.9 23:17:24 40° WSW 23:18:57 57° WNW 23:24:03 10° NNE
Cosmos 2034 Rocket 4.3 23:19:27 45° SE 23:20:36 51° E 23:26:43 10° NNE
SL-4 R/B 4.2 23:17:48 10° W 23:18:32 15° W 23:18:32 15° W
Cosmos 2227 Rocket 3.2 23:22:00 32° E 23:22:00 32° E 23:26:40 10° NE
Cosmos 1072 Rocket 4.4 23:20:37 58° SSE 23:21:48 74° E 23:27:55 10° NNE
Cosmos 1707 3.6 23:18:32 10° N 23:21:46 43° NE 23:21:46 43° NE
USA 267 3.5 23:18:36 10° ENE 23:25:06 69° NNW 23:31:35 10° W
Cosmos 2219 Rocket 3.1 23:20:24 10° NW 23:25:29 34° WSW 23:26:05 33° WSW
EO 1 Del DPAF 3.8 23:25:04 10° N 23:28:12 55° NNW 23:28:12 55° NNW
Cosmos 1536 Rocket 4.4 23:25:38 10° N 23:29:39 39° ENE 23:29:39 39° ENE
Cosmos 1782 Rocket 3.6 23:35:17 72° NW 23:35:17 72° NW 23:39:23 10° N
Cosmos 1538 Rocket 3.8 23:29:55 10° NNW 23:35:08 82° ENE 23:35:35 73° SE
Cosmos 1842 4.3 23:34:04 10° NNW 23:37:09 40° WNW 23:37:09 40° WNW
Cosmos 1607 4.0 23:39:04 10° NW 23:45:33 85° NE 23:47:26 50° SE
Helios 1B rocket 4.2 23:51:44 10° NE 23:54:18 22° ENE 23:54:18 22° ENE
